Location: ActonStarParty
(42.4766°N, 71.4538°W)
Time: 20:56:42
(UTC-04:00)

ATLAS 5 CENTAUR R/B - Visible Passes

Search period start: 05 July 2015 00:00
Search period end: 15 July 2015 00:00
Orbit: 336 x 14886 km, 60.8° (Epoch: 08 May)

Date Brightness Start Highest point End Pass type
(mag) Time Alt. Az. Time Alt. Az. Time Alt. Az.
05 Jul 8.3 21:53:31 10° SSW 23:53:55 74° NW 01:02:50 10° ENE visible
06 Jul 6.8 03:56:35 10° WNW 05:39:08 79° NE 05:53:47 10° SE visible
06 Jul 8.3 20:39:23 10° SSW 22:21:23 89° NW 23:47:21 10° NE visible
07 Jul 7.3 02:11:19 10° W 04:20:58 65° NNE 04:41:01 10° ESE visible
07 Jul 8.2 19:28:19 10° S 20:55:57 74° ESE 22:31:36 10° NE visible
08 Jul 7.7 00:34:07 10° WSW 02:57:50 60° N 03:27:13 10° E visible
08 Jul 8.2 18:20:38 10° SSE 19:37:06 57° ESE 21:15:24 10° NE visible
08 Jul 8.0 23:07:42 10° WSW 01:28:20 62° NNW 02:12:36 10° ENE visible
09 Jul 8.2 21:48:11 10° SW 23:53:16 71° NNW 00:57:22 10° ENE visible
10 Jul 6.6 03:57:50 10° NW 05:33:40 85° NE 05:47:28 10° SE visible
10 Jul 8.3 20:32:58 10° SSW 22:18:56 85° NW 23:41:44 10° NE visible
11 Jul 7.1 02:12:44 10° WNW 04:16:23 68° NNE 04:34:49 10° ESE visible
11 Jul 8.3 19:20:55 10° S 20:51:17 79° ESE 22:25:49 10° NE visible
12 Jul 7.5 00:32:31 10° W 02:54:27 61° N 03:21:07 10° E visible
12 Jul 8.2 18:12:02 10° SSE 19:30:44 61° ESE 21:09:32 10° NE visible
12 Jul 7.8 23:03:32 10° WSW 01:26:22 61° N 02:06:29 10° ENE visible
13 Jul 8.0 21:42:25 10° SW 23:51:53 68° NNW 00:51:10 10° ENE visible
14 Jul 6.4 03:57:26 10° NW 05:27:14 89° SW 05:40:24 10° SE visible
14 Jul 8.2 20:26:04 10° SSW 22:16:10 81° NW 23:35:24 10° NE visible
